Lahr, Germany

1:27 PM CEST on October 14, 2019 (GMT +0200)
Lahr

Weather History for EDTL - August, 2019

Change the Weather History Date:

Saturday, August 24, 2019

  Actual Average (WUND) Record (WUND)
Temperature  
Mean Temperature 68 °F -  
Max Temperature 82 °F - - (-1)
Min Temperature 55 °F - - (-1)
Cooling Degree Days 4    
Growing Degree Days 18 (Base 50)    
Moisture  
Dew Point 61 °F    
Average Humidity 63    
Maximum Humidity 94    
Minimum Humidity 43    
Precipitation  
Precipitation 0.00 in - - ()
Sea Level Pressure  
Sea Level Pressure 30.10 in    
Wind  
Wind Speed 2 mph ()    
Max Wind Speed 5 mph    
Max Gust Speed -    
Visibility 10.0 miles    
Events      
Averages and records for this station are not official NWS values.
T = Trace of Precipitation, MM = Missing Value Source: Averaged Metar Reports

Daily Weather History Graph

Daily Weather History Graph

Search for Another Location

Airport or City:

Astronomy

Aug. 24, 2019 Rise Set
Actual Time 6:34 AM CEST 8:26 PM CEST
Civil Twilight 6:01 AM CEST 9:00 PM CEST
Nautical Twilight 5:19 AM CEST 9:41 PM CEST
Astronomical Twilight 4:34 AM CEST 10:26 PM CEST
Moon 12:09 AM CEST (8/24) 3:36 PM CEST (8/24)
Length of Visible Light 14h 59m
Length of Day
13h 52m
Last Quarter, 42% of the Moon is Illuminated
Aug 24
Last Quarter
Aug 30
New
Sep 6
First Quarter
Sep 14
Full
Sep 22
Last Quarter

Hourly Weather History & Observations

Time (CEST) Temp. Heat Index Dew Point Humidity Pressure Visibility Wind Dir Wind Speed Gust Speed Precip Events Conditions
12:00 AM 64 °F - 56 °F 68% 30.16 in 16 mi ESE 2.2 mph - -  
3:00 AM 57 °F - 55 °F 91% 30.15 in 8 mi Calm Calm - -  
6:00 AM 55 °F - 54 °F 94% 30.16 in 3 mi West 2.2 mph - -   Mist
7:00 AM 55 °F - 54 °F 94% 30.16 in 5 mi WNW 2.2 mph - -   Clear
10:00 AM 66 °F - 58 °F 68% 30.15 in 9 mi NW 2.2 mph - -  
12:00 PM 74 °F - 60 °F 53% 30.13 in 11 mi NNE 4.5 mph - -  
1:00 PM 76 °F - 60 °F 48% 30.12 in 11 mi WNW 2.2 mph - -  
3:00 PM 80 °F - 61 °F 43% 30.09 in 14 mi North 2.2 mph - -  
3:20 PM 78.8 °F - 60.8 °F 54% 30.09 in - North 4.6 mph - N/A   Clear
3:50 PM 80.6 °F 81.8 °F 62.6 °F 54% 30.09 in - Variable 3.5 mph - N/A   Clear
4:00 PM 82 °F - 63 °F 43% 30.08 in 12 mi ENE 4.5 mph - -  
5:50 PM 82.4 °F 83.4 °F 62.6 °F 51% 30.06 in - NNE 4.6 mph - N/A   Clear
6:20 PM 80.6 °F 81.8 °F 62.6 °F 54% 30.06 in - Variable 3.5 mph - N/A   Clear
6:50 PM 80.6 °F 81.8 °F 62.6 °F 54% 30.06 in - NNW 4.6 mph - N/A   Clear
7:20 PM 80.6 °F 81.8 °F 62.6 °F 54% 30.06 in - North 4.6 mph - N/A   Clear
7:50 PM 78.8 °F - 62.6 °F 57% 30.06 in - North 3.5 mph - N/A   Clear
8:20 PM 77.0 °F - 62.6 °F 61% 30.06 in - NNW 1.2 mph - N/A   Clear
8:50 PM 73.4 °F - 64.4 °F 73% 30.06 in - SE 2.3 mph - N/A   Clear
9:00 PM 72 °F - 63 °F 66% 30.06 in 11 mi SSE 2.2 mph - -  
9:20 PM 68.0 °F - 64.4 °F 88% 30.06 in - ESE 3.5 mph - N/A   Clear